TimeCDT,TemperatureF,Dew PointF,Humidity,Sea Level PressureIn,VisibilityMPH,Wind Direction,Wind SpeedMPH,Gust SpeedMPH,PrecipitationIn,Events,Conditions,WindDirDegrees,DateUTC
12:52 AM,57.0,53.1,87,29.88,10.0,SSE,3.5,-,N/A,,Clear,150,2013-04-30 05:52:00
1:52 AM,61.0,55.0,81,29.87,10.0,South,6.9,-,N/A,,Clear,180,2013-04-30 06:52:00
2:52 AM,59.0,53.1,81,29.88,10.0,SW,3.5,-,N/A,,Clear,220,2013-04-30 07:52:00
3:52 AM,55.0,52.0,89,29.87,10.0,South,4.6,-,N/A,,Clear,170,2013-04-30 08:52:00
4:52 AM,57.0,52.0,83,29.88,10.0,SSE,6.9,-,N/A,,Clear,160,2013-04-30 09:52:00
5:52 AM,55.9,52.0,87,29.89,10.0,North,-9999.0,-,N/A,,Clear,0,2013-04-30 10:52:00
6:52 AM,57.9,53.1,84,29.91,10.0,SSE,4.6,-,N/A,,Clear,160,2013-04-30 11:52:00
7:52 AM,64.0,57.0,78,29.93,10.0,South,5.8,-,N/A,,Clear,180,2013-04-30 12:52:00
8:52 AM,69.1,57.0,65,29.95,10.0,South,9.2,-,N/A,,Clear,190,2013-04-30 13:52:00
9:52 AM,73.0,55.0,53,29.95,10.0,SSW,10.4,-,N/A,,Clear,210,2013-04-30 14:52:00
10:52 AM,75.0,55.0,50,29.95,10.0,South,15.0,-,N/A,,Clear,180,2013-04-30 15:52:00
11:52 AM,78.1,57.0,48,29.94,10.0,South,12.7,-,N/A,,Partly Cloudy,190,2013-04-30 16:52:00
2:52 PM,79.0,57.9,48,29.91,10.0,South,8.1,-,N/A,,Scattered Clouds,190,2013-04-30 19:52:00
3:52 PM,81.0,59.0,47,29.91,10.0,SSE,11.5,-,N/A,,Scattered Clouds,160,2013-04-30 20:52:00
4:52 PM,80.1,57.0,45,29.91,10.0,South,11.5,-,N/A,,Scattered Clouds,180,2013-04-30 21:52:00
5:52 PM,78.1,57.9,50,29.91,10.0,South,9.2,-,N/A,,Partly Cloudy,180,2013-04-30 22:52:00
6:52 PM,73.9,57.0,55,29.92,10.0,South,8.1,-,N/A,,Clear,190,2013-04-30 23:52:00
7:52 PM,70.0,55.9,61,29.93,10.0,South,3.5,-,N/A,,Clear,180,2013-05-01 00:52:00
8:52 PM,64.9,57.9,78,29.95,10.0,Calm,Calm,-,N/A,,Clear,0,2013-05-01 01:52:00
9:52 PM,63.0,57.0,81,29.97,10.0,Calm,Calm,-,N/A,,Clear,0,2013-05-01 02:52:00
10:52 PM,64.0,55.0,73,29.97,10.0,SE,5.8,-,N/A,,Clear,130,2013-05-01 03:52:00
11:52 PM,62.1,54.0,75,29.97,10.0,ESE,8.1,-,N/A,,Clear,110,2013-05-01 04:52:00